Location: *
(33.8649°S, 62.1526°E)
Time: 04:48:07
(UTC+00:00)

Cosmos 1727 Rocket - Pass Details

Date: 17 January 2021
Orbit: 960 x 997 km, 82.9° (Epoch: 27 February)

Event Time Altitude Azimuth Distance (km) Brightness Sun altitude
Exits shadow 22:18:31 68° 322° (NW) 1,037 3.8 -26.6°
Maximum altitude 22:19:16 78° 264° (W) 992 3.9 -26.5°
Drops below altitude 10° 22:25:31 10° 177° (S) 2,723 7.0 -25.7°
Sets 22:28:03 0° 175° (S) 3,678 7.9 -25.4°
